Weather History for Hall Beach, NU

Change the Weather History Date:

Monday, June 25, 2012

  Actual Average Record
Temperature  
Mean Temperature 34 °F -  
Max Temperature 35 °F 38 °F 50 °F (2013)
Min Temperature 33 °F 31 °F 30 °F (2001)
Degree Days  
Heating Degree Days 31    
Moisture  
Dew Point 34 °F    
Average Humidity 100    
Maximum Humidity 100    
Minimum Humidity 97    
Precipitation  
Precipitation 0.00 in - - ()
Sea Level Pressure  
Sea Level Pressure 29.85 in    
Wind  
Wind Speed 4 mph ()    
Max Wind Speed 8 mph    
Max Gust Speed -    
Visibility 3.4 miles    
Events Fog , Rain    
Averages and records for this station are not official NWS values.
T = Trace of Precipitation, MM = Missing Value Source: Averaged Metar Reports

Daily Weather History Graph

Daily Weather History Graph

Search for Another Location

Airport:

Trip Planner

Search our weather history database for the weather conditions in past years. The results will help you decide how hot, cold, wet, or windy it might be!

Date:

Astronomy

Dec. 31, 1969 Rise Set
Actual Time Sun does not rise Sun does not rise
Civil Twilight Sun does not rise Sun does not rise
Nautical Twilight Sun does not rise Sun does not rise
Astronomical Twilight Sun does not rise Sun does not rise
Moon 12:00 PM EDT (6/25) 12:17 AM EDT (6/25)
Length of Visible Light 24h 00m
Length of Day
24h 00m
Waxing Crescent, 34% of the Moon is Illuminated
Jun 25
Waxing Crescent
Jun 26
First Quarter
Jul 3
Full
Jul 10
Last Quarter
Jul 19
New

Hourly Weather History & Observations

Time (EDT) Temp. Windchill Dew Point Humidity Pressure Visibility Wind Dir Wind Speed Gust Speed Precip Events Conditions
12:00 AM 33.8 °F 29.6 °F 33.8 °F 100% 29.80 in 2.1 mi ENE 4.6 mph - N/A   Overcast
12:43 AM 33.8 °F - 33.8 °F 100% 29.80 in 8.0 mi Calm Calm - N/A   Overcast
1:00 AM 33.8 °F - 33.8 °F 100% 29.81 in 9.0 mi Calm Calm - N/A   Overcast
1:41 AM 35.6 °F 32.8 °F 35.6 °F 100% 29.81 in 2.0 mi SE 3.5 mph - N/A   Overcast
1:42 AM 33.8 °F 30.8 °F 33.8 °F 100% 29.81 in 1.2 mi SE 3.5 mph - N/A   Overcast
1:43 AM 33.8 °F 30.8 °F 33.8 °F 100% 29.81 in 1.0 mi SE 3.5 mph - N/A   Overcast
1:44 AM 33.8 °F 30.8 °F 33.8 °F 100% 29.81 in 0.6 mi SE 3.5 mph - N/A   Overcast
1:48 AM 33.8 °F 30.8 °F 33.8 °F 100% 29.81 in 0.4 mi SE 3.5 mph - N/A   Overcast
1:58 AM 33.8 °F 30.8 °F 33.8 °F 100% 29.81 in 0.8 mi SE 3.5 mph - N/A   Overcast
2:00 AM 34 °F - 34 °F 100% 29.82 in 1 mi SE 3.5 mph - -   Overcast
2:00 AM 33.8 °F 30.8 °F 33.8 °F 100% 29.82 in 1.0 mi SE 3.5 mph - N/A   Overcast
2:14 AM 33.8 °F - 33.8 °F 100% 29.81 in 1.8 mi Calm Calm - N/A   Overcast
2:30 AM 33.8 °F - 33.8 °F 100% 29.82 in 3.5 mi SE 2.3 mph - N/A   Overcast
2:40 AM 33.8 °F - 33.8 °F 100% 29.82 in 2.2 mi SE 2.3 mph - N/A   Overcast
2:44 AM 33.8 °F - 33.8 °F 100% 29.82 in 1.4 mi ESE 2.3 mph - N/A   Overcast
2:49 AM 33.8 °F - 33.8 °F 100% 29.82 in 1.0 mi Calm Calm - N/A   Overcast
2:52 AM 33.8 °F - 33.8 °F 100% 29.82 in 0.6 mi Calm Calm - N/A   Overcast
2:58 AM 33.8 °F - 33.8 °F 100% 29.82 in 0.4 mi Calm Calm - N/A   Overcast
3:00 AM 33.8 °F - 33.8 °F 100% 29.83 in 0.4 mi Calm Calm - N/A   Overcast
3:27 AM 33.8 °F - 33.8 °F 100% 29.82 in 0.8 mi East 2.3 mph - N/A   Overcast
3:44 AM 33.8 °F - 33.8 °F 100% 29.82 in 0.6 mi East 2.3 mph - N/A   Overcast
3:46 AM 33.8 °F - 33.8 °F 100% 29.82 in 0.6 mi East 2.3 mph - N/A   Overcast
3:48 AM 33.8 °F 30.8 °F 33.8 °F 100% 29.82 in 0.6 mi East 3.5 mph - N/A   Overcast
4:00 AM 33.8 °F 30.8 °F 33.8 °F 100% 29.83 in 0.5 mi East 3.5 mph - N/A   Mostly Cloudy
5:00 AM 34 °F - 34 °F 100% 29.83 in 1 mi NE 2.3 mph - -  
5:00 AM 33.8 °F - 33.8 °F 100% 29.83 in 0.6 mi NE 2.3 mph - N/A   Mostly Cloudy
5:34 AM 33.8 °F 29.6 °F 33.8 °F 100% 29.84 in 0.4 mi East 4.6 mph - N/A   Mostly Cloudy
5:57 AM 33.8 °F 29.6 °F 33.8 °F 100% 29.84 in 0.8 mi East 4.6 mph - N/A   Mostly Cloudy
6:00 AM 33.8 °F 30.8 °F 33.8 °F 100% 29.85 in 1.0 mi ESE 3.5 mph - N/A   Mostly Cloudy
6:10 AM 33.8 °F 30.8 °F 33.8 °F 100% 29.85 in 1.1 mi East 3.5 mph - N/A   Overcast
6:15 AM 33.8 °F 30.8 °F 33.8 °F 100% 29.85 in 1.4 mi ESE 3.5 mph - N/A   Mostly Cloudy
6:17 AM 33.8 °F 29.6 °F 33.8 °F 100% 29.85 in 1.4 mi ESE 4.6 mph - N/A   Overcast
6:22 AM 33.8 °F 29.6 °F 33.8 °F 100% 29.85 in 1.4 mi ESE 4.6 mph - N/A   Overcast
6:23 AM 33.8 °F 28.6 °F 33.8 °F 100% 29.85 in 2.0 mi ESE 5.8 mph - N/A   Overcast
6:27 AM 33.8 °F 29.6 °F 33.8 °F 100% 29.85 in 1.2 mi ESE 4.6 mph - N/A   Overcast
6:32 AM 33.8 °F 29.6 °F 33.8 °F 100% 29.85 in 1.0 mi ESE 4.6 mph - N/A   Overcast
6:40 AM 33.8 °F 29.6 °F 33.8 °F 100% 29.85 in 0.6 mi SE 4.6 mph - N/A   Overcast
7:00 AM 33.8 °F 29.6 °F 33.8 °F 100% 29.87 in 1.0 mi SE 4.6 mph - N/A   Overcast
7:10 AM 33.8 °F 29.6 °F 33.8 °F 100% 29.86 in 0.6 mi SE 4.6 mph - N/A   Overcast
7:26 AM 33.8 °F 28.6 °F 33.8 °F 100% 29.86 in 1.0 mi SE 5.8 mph - N/A   Overcast
7:43 AM 33.8 °F 29.6 °F 33.8 °F 100% 29.86 in 3.0 mi SSE 4.6 mph - N/A   Mostly Cloudy
7:47 AM 33.8 °F 29.6 °F 33.8 °F 100% 29.86 in 2.5 mi SSE 4.6 mph - N/A   Overcast
7:56 AM 33.8 °F 28.6 °F 33.8 °F 100% 29.87 in 1.4 mi ESE 5.8 mph - N/A   Overcast
8:00 AM 33 °F - 33 °F 100% 29.88 in 1 mi SE 5.8 mph - -   Overcast
8:00 AM 33.8 °F 28.6 °F 33.8 °F 100% 29.88 in 0.8 mi ESE 5.8 mph - N/A   Overcast
8:26 AM - - - N/A% - 1.0 mi SSE 4.6 mph - N/A   Mostly Cloudy
8:51 AM - - - N/A% - 15.0 mi SE 6.9 mph - N/A   Mostly Cloudy
9:00 AM 33.8 °F 28.6 °F 33.8 °F 100% 29.88 in 15.0 mi SE 5.8 mph - N/A   Mostly Cloudy
10:00 AM 35.6 °F 32.8 °F 35.6 °F 100% 29.89 in 15.0 mi SSE 3.5 mph - N/A   Mostly Cloudy
10:27 AM - - - N/A% - 15.0 mi SE 2.3 mph - N/A   Mostly Cloudy
11:00 AM 35 °F - 35 °F 97% 29.90 in 9 mi ESE 5.8 mph - - Rain Light Rain
11:00 AM 33.8 °F 28.6 °F 33.8 °F 100% 29.90 in 15.0 mi ESE 5.8 mph - N/A Rain Light Rain
12:00 PM 33.8 °F 27.7 °F 33.8 °F 100% 29.90 in 0.8 mi East 6.9 mph - N/A Rain Light Rain
12:18 PM - - - N/A% - 0.8 mi East 6.9 mph - N/A   Mostly Cloudy
12:33 PM - - - N/A% - 6.0 mi ESE 6.9 mph - N/A   Mostly Cloudy
1:00 PM 33.8 °F 28.6 °F 33.8 °F 100% 29.90 in 15.0 mi East 5.8 mph - N/A   Mostly Cloudy
1:21 PM - - - N/A% - 15.0 mi ENE 3.5 mph - N/A Rain Light Rain
2:00 PM 35 °F - 35 °F 98% 29.91 in 9 mi East 5.8 mph - -   Overcast
2:00 PM 35.6 °F 30.7 °F 35.6 °F 100% 29.91 in 15.0 mi East 5.8 mph - N/A   Mostly Cloudy
2:29 PM - - - N/A% - 15.0 mi East 4.6 mph - N/A   Mostly Cloudy
2:42 PM - - - N/A% - 12.0 mi East 4.6 mph - N/A Rain Light Rain
4:00 PM 33.8 °F 27.0 °F 33.8 °F 100% 29.91 in 3.0 mi ENE 8.1 mph - N/A Rain Light Rain
4:17 PM - - - N/A% - 1.0 mi ENE 8.1 mph - N/A Rain Light Rain
4:30 PM - - - N/A% - 3.0 mi ENE 6.9 mph - N/A   Light Drizzle
5:00 PM 35 °F - 35 °F 100% 29.91 in 6 mi NE 5.8 mph - -   Overcast
5:00 PM 35.6 °F 31.7 °F 35.6 °F 100% 29.91 in 5.0 mi NE 4.6 mph - N/A   Light Drizzle
5:13 PM - - - N/A% - 3.0 mi NE 6.9 mph - N/A Rain Light Rain
5:19 PM - - - N/A% - 0.8 mi NE 5.8 mph - N/A Rain Light Rain
5:40 PM - - - N/A% - 1.0 mi NE 5.8 mph - N/A Rain Light Rain
6:00 PM 35.6 °F 31.7 °F 35.6 °F 100% 29.90 in 0.5 mi NE 4.6 mph - N/A Fog Fog
6:16 PM - - - N/A% - 0.2 mi NE 5.8 mph - N/A Fog Fog
7:00 PM 35.6 °F 29.9 °F 35.6 °F 100% 29.89 in 0.8 mi NE 6.9 mph - N/A   Overcast
7:36 PM - - - N/A% - 3.0 mi NE 8.1 mph - N/A   Overcast
8:00 PM 35 °F - 35 °F 100% 29.89 in 2 mi NE 8.1 mph - -   Overcast
8:00 PM 35.6 °F 29.2 °F 35.6 °F 100% 29.89 in 2.0 mi NE 8.1 mph - N/A   Overcast
8:13 PM 35.6 °F 29.2 °F 35.6 °F 100% 29.88 in 2.5 mi NE 8.1 mph - N/A   Overcast
8:21 PM 35.6 °F 29.2 °F 35.6 °F 100% 29.88 in 4.0 mi NE 8.1 mph - N/A   Overcast
8:27 PM 35.6 °F 29.2 °F 35.6 °F 100% 29.87 in 2.4 mi NE 8.1 mph - N/A   Overcast
8:35 PM 35.6 °F 29.2 °F 35.6 °F 100% 29.87 in 1.4 mi NE 8.1 mph - N/A   Overcast
8:52 PM 35.6 °F 29.9 °F 35.6 °F 100% 29.88 in 1.0 mi ENE 6.9 mph - N/A   Overcast
8:55 PM 35.6 °F 29.9 °F 35.6 °F 100% 29.87 in 0.6 mi NE 6.9 mph - N/A   Overcast
9:00 PM 35.6 °F 29.9 °F 35.6 °F 100% 29.88 in 0.6 mi ENE 6.9 mph - N/A   Overcast
9:05 PM 35.6 °F 29.9 °F 35.6 °F 100% 29.87 in 0.4 mi ENE 6.9 mph - N/A   Overcast
9:42 PM 35.6 °F 29.9 °F 35.6 °F 100% 29.87 in 0.1 mi ENE 6.9 mph - N/A   Overcast
10:00 PM 35.6 °F 31.7 °F 35.6 °F 100% 29.88 in 0.1 mi NE 4.6 mph - N/A   Overcast
10:36 PM 35.6 °F 30.7 °F 35.6 °F 100% 29.87 in 0.5 mi NNE 5.8 mph - N/A   Overcast
10:42 PM 35.6 °F 32.8 °F 35.6 °F 100% 29.86 in 1.0 mi North 3.5 mph - N/A   Overcast
10:46 PM 35.6 °F 31.7 °F 35.6 °F 100% 29.86 in 3.0 mi North 4.6 mph - N/A   Mostly Cloudy
10:47 PM 35.6 °F 31.7 °F 35.6 °F 100% 29.86 in 4.0 mi North 4.6 mph - N/A   Clear
11:00 PM 35 °F - 35 °F 100% 29.86 in 9 mi NNE 5.8 mph - -  
11:00 PM 35.6 °F 30.7 °F 35.6 °F 100% 29.86 in 9.0 mi NNE 5.8 mph - N/A   Clear